This demonstration page uses our WeatherBlox Daily Observations layout. Learn more.

Left ArrowRight Arrow

44.31136, -96.79839

Hourly Observations for May 25, 2022

Temp ( °F °C ) Dew Point ( °F °C ) Humidity (%) Winds ( mph kmh ) Pressure ( in mb ) Visibility ( mi km ) Precip ( " mm )
12:56 am 00:56 Cloudy 51 10.6 46 7.8 83 83 S 8 13 30.12 1020 10 16 0.00 0.00
1:56 am 01:56 Cloudy 50 10 45 7.2 83 83 ESE 6 9 30.12 1020 10 16 0.00 0.00
2:56 am 02:56 Cloudy with Light Rain 49 9.4 47 8.3 93 93 Calm 30.10 1019 10 16 0.00 0.00
3:56 am 03:56 Cloudy with Light Rain 49 9.4 45 7.2 86 86 NE 6 9 30.08 1019 10 16 0.01 0.25
4:56 am 04:56 Cloudy 49 9.4 46 7.8 90 90 N 6 9 30.07 1018 10 16 0.00 0.00
5:37 am 05:37 Cloudy 48 9 45 7 87 87 NNE 8 13 30.05 1017 10 16 0.00 0.00
5:54 am 05:54 Cloudy 48 9 46 8 94 94 NNE 7 11 30.04 1017 10 16 0.00 0.00
5:56 am 05:56 Cloudy 49 9.4 46 7.8 90 90 NE 6 9 30.06 1018 10 16 0.00 0.00
6:56 am 06:56 Cloudy with Light Rain 48 8.9 46 7.8 93 93 NNE 9 15 30.07 1018 10 16 0.00 0.00
7:52 am 07:52 Cloudy 48 9 46 8 94 94 NNE 9 15 30.06 1018 10 16 0.00 0.00
7:56 am 07:56 Cloudy 49 9.4 47 8.3 93 93 NNE 10 17 30.09 1019 10 16 0.00 0.00
8:15 am 08:15 Cloudy 48 9 46 8 94 94 NNE 8 13 30.06 1018 10 16 0.00 0.00
8:56 am 08:56 Cloudy with Mist and Fog 49 9.4 47 8.3 93 93 NNE 9 15 30.07 1018 6 10 0.00 0.00
9:03 am 09:03 Cloudy with Light Rain 48 9 46 8 94 94 NE 9 15 30.04 1017 4 6 0.00 0.00
9:56 am 09:56 Cloudy with Mist and Fog 48 8.9 47 8.3 96 96 ENE 12 19 30.06 1018 4 6 0.00 0.00
10:14 am 10:14 Cloudy with Light Rain 46 8 46 8 100 100 NNE 13 20 30.02 1017 3 5 0.00 0.00
10:35 am 10:35 Cloudy 48 9 46 8 94 94 NE 9 15 30.01 1016 8 13 0.00 0.00
10:56 am 10:56 Cloudy 49 9.4 47 8.3 93 93 NE 13 20 30.04 1017 10 16 0.00 0.00
11:14 am 11:14 Cloudy 50 10 46 8 88 88 NE 12 19 30.00 1016 10 16 0.00 0.00
11:56 am 11:56 Cloudy 51 10.6 48 8.9 89 89 NE 10 17 30.04 1017 10 16 0.00 0.00
12:56 pm 12:56 Cloudy 53 11.7 45 7.2 74 74 ENE 12 19 30.02 1017 10 16 0.00 0.00
1:22 pm 13:22 Cloudy 52 11 45 7 77 77 NE 12 19 29.96 1015 10 16 0.00 0.00
1:31 pm 13:31 Cloudy 52 11 45 7 77 77 NE 12 19 29.96 1015 10 16 0.00 0.00
1:56 pm 13:56 Cloudy 52 11.1 46 7.8 80 80 NNE 14 22 30.00 1016 10 16 0.00 0.00
2:56 pm 14:56 Cloudy 52 11.1 46 7.8 80 80 NE 13 20 29.99 1016 10 16 0.00 0.00
3:17 pm 15:17 Cloudy 55 13 46 8 72 72 NE 15 24 29.92 1013 10 16 0.00 0.00
3:25 pm 15:25 Cloudy 52 11 46 8 82 82 NNE 14 22 29.94 1014 10 16 0.00 0.00
3:56 pm 15:56 Cloudy 53 11.7 46 7.8 77 77 NNE 10 17 29.98 1015 10 16 0.00 0.00
4:56 pm 16:56 Cloudy 52 11.1 46 7.8 80 80 NNE 13 20 29.97 1015 10 16 0.00 0.00
5:56 pm 17:56 Cloudy 53 11.7 46 7.8 77 77 NNE 10 17 29.96 1015 10 16 0.00 0.00
6:56 pm 18:56 Cloudy 52 11.1 46 7.8 80 80 NNE 13 20 29.96 1015 10 16 0.00 0.00
7:56 pm 19:56 Cloudy 52 11.1 46 7.8 80 80 NNE 16 26 29.95 1014 10 16 0.00 0.00
8:56 pm 20:56 Cloudy 50 10 45 7.2 83 83 NNE 13 20 29.95 1014 10 16 0.00 0.00
9:56 pm 21:56 Cloudy 49 9.4 46 7.8 90 90 NNE 7 11 29.96 1015 10 16 0.00 0.00
10:28 pm 22:28 Cloudy 50 10 46 8 88 88 NE 8 13 29.91 1013 10 16 0.00 0.00
10:56 pm 22:56 Cloudy 50 10 46 7.8 86 86 NNE 9 15 29.95 1014 10 16 0.00 0.00
11:56 pm 23:56 Mostly Cloudy 47 8.3 45 7.2 93 93 N 8 13 29.93 1014 10 16 0.00 0.00

Powered by AerisWeather